STARLINK-2647 (48658 NORAD) Tracking and Keplerian Element Data

This shows tracking and keplerian element data for the satellite.

Feedback or suggestion? Click here.




ElementValue
Catalog48658
NameSTARLINK-2647
Epoch Orbit1049
Epoch Day214.69114241
Epoch Year2021
RAAN103.4141
Inclination53.0567
Eccentricity0.0001799
Argument of Perigee80.2244
Mean Anonmoly279.8948
Mean Motion15.06391759
Decay Rate4.96E-06
L11 48658U 21044W 21214.69114241 .00000496 00000-0 52225-4 0 9999
L22 48658 53.0567 103.4141 0001799 80.2244 279.8948 15.06391759 10496

Live tracking and technical data element details for STARLINK-2647 (NORAD 48658). STARLINK-2647 can be tracked NOW for your location showing map with azimuth and elevation plus other details from your city location.

Track the satellite on the map from your city or location and see movement details for azimuth, elevation, latitude, longitude, range, height, and movement on the map or in text.







IsCatalogInMostPopularTable: catalog: 48658, numindb: 18
Update: records affected: 1



GetName: 48658 STARLINK-2647

Hit Count: updated at: Tue, 03 Aug 2021 20:45:20 GMT